Regional Weather Roundup
Issued by NWS

Home | Current Version | Previous Version | Graphics & Text | Print | Product List | Glossary On
Versions: 1 2 3 4 5 6 7 8 9 10 11 12 13 14 15 16 17 18 19 20 21 22 23 24 25 26 27
000
ASUS45 KPSR 270010
RWRAZ

ARIZONA HOURLY REGIONAL WEATHER ROUNDUP
NATIONAL WEATHER SERVICE PHOENIX AZ
500 PM MST FRI AUG 26 2016

NOTE: FAIR INDICATES FEW OR NO CLOUDS BELOW 12,000 FEET WITH NO
SIGNIFICANT WEATHER AND/OR OBSTRUCTIONS TO VISIBILITY.

AZZ001>003-036-270100-
NORTHWEST ARIZONA

CITY           SKY/WX    TMP DP  RH WIND       PRES   REMARKS
BULLHEAD CITY  SUNNY    100  48  17 S16G26    29.77F
KINGMAN        PTSUNNY   88  47  24 SW13      29.98F
6HR MIN TEMP:  84; 6HR MAX TEMP:  90;

$$

AZZ004>008-015-016-018-270100-
NORTH CENTRAL ARIZONA

CITY           SKY/WX    TMP DP  RH WIND       PRES   REMARKS
GRAND CANYON   PTSUNNY   67  45  45 S7        30.23S
6HR MIN TEMP:  67; 6HR MAX TEMP:  75;

PRESCOTT       PTSUNNY   72  56  57 NE5       30.14F
6HR MIN TEMP:  66; 6HR MAX TEMP:  76; 6HR PCP:  0.05;

FLAGSTAFF      CLOUDY    57  51  80 CALM      30.28F
6HR MIN TEMP:  44; 6HR MAX TEMP:  70; 6HR PCP:  1.33;

PAYSON         PTSUNNY   73  54  49 NE7       30.16F
PAGE           PTSUNNY   82  47  29 NE5       30.03F
6HR MIN TEMP:  73; 6HR MAX TEMP:  83;

$$

AZZ009>014-017-270100-
NORTHEAST ARIZONA

CITY           SKY/WX    TMP DP  RH WIND       PRES   REMARKS
WINSLOW        CLOUDY    72  49  44 W12       30.15F
6HR MIN TEMP:  72; 6HR MAX TEMP:  81;

SAINT JOHNS    CLOUDY    76  43  30 SW5       30.15S
6HR MIN TEMP:  69; 6HR MAX TEMP:  79;

WINDOW ROCK    MOSUNNY   70  46  42 S5        30.21F
6HR MIN TEMP:  64; 6HR MAX TEMP:  75;

SHOW LOW       MOSUNNY   70  41  35 NW9       30.22S
$$

AZZ023-270100-
GREATER PHOENIX AREA

CITY           SKY/WX    TMP DP  RH WIND       PRES   REMARKS
PHOENIX        PTSUNNY   98  55  23 NE7       29.80F
6HR MIN TEMP:  91; 6HR MAX TEMP:  98;

BUCKEYE        SUNNY     95  55  26 E6        29.83F
GLENDALE       MOSUNNY   99  55  23 N7        29.84F
LUKE AFB       SUNNY     96  56  25 N9        29.81F
6HR MIN TEMP:  88; 6HR MAX TEMP:  97;

DEER VALLEY    SUNNY     93  54  26 E5        29.84F
6HR MIN TEMP:  87; 6HR MAX TEMP:  95;

SCOTTSDALE     SUNNY     95  53  24 N6        29.86F
6HR MIN TEMP:  88; 6HR MAX TEMP:  96;

MESA-FALCON    MOSUNNY  N/A N/A N/A S6        29.81F
MESA-GATEWAY   MOSUNNY   95  55  26 SE8       29.85F
CHANDLER       SUNNY     97  55  24 S6        29.83F
$$

AZZ027-028-270100-
SOUTHWEST MARICOPA COUNTY AND PINAL COUNTY

CITY           SKY/WX    TMP DP  RH WIND       PRES   REMARKS
CASA GRANDE    SUNNY     95  61  31 S7        29.87F
6HR MIN TEMP:  88; 6HR MAX TEMP:  97;

GILA BEND      MOSUNNY   96  59  29 S6        29.78F
6HR MIN TEMP:  93; 6HR MAX TEMP:  99;

$$

AZZ503-504-507>509-270100-
SOUTHEAST ARIZONA

CITY           SKY/WX    TMP DP  RH WIND       PRES   REMARKS
TUCSON         SUNNY     90  58  33 CALM      29.95F
6HR MIN TEMP:  84; 6HR MAX TEMP:  92; 6HR PCP: TRACE;

DAVIS-MONTHAN  SUNNY     90  59  35 CALM      29.94F
6HR MIN TEMP:  77; 6HR MAX TEMP:  90; 6HR PCP: TRACE;

RYAN FIELD     SUNNY     90  61  37 SE5       29.93F
NOGALES        MOSUNNY   87  52  29 SW13G20   30.03S
6HR MIN TEMP:  80; 6HR MAX TEMP:  90;

SIERRA VISTA   LGT RAIN  77  57  50 NW7       30.11S
                                      6HR PCP:  0.01;

DOUGLAS        SUNNY     86  55  34 N7        30.04F
6HR MIN TEMP:  76; 6HR MAX TEMP:  87;

SAFFORD        LGT RAIN  72  62  71 NW14      29.99R
6HR MIN TEMP:  71; 6HR MAX TEMP:  91; 6HR PCP:  0.01;

$$

AZZ020-021-025-026-031-270100-
SOUTHWEST ARIZONA

CITY           SKY/WX    TMP DP  RH WIND       PRES   REMARKS
YUMA           MOSUNNY  101  53  20 S16       29.74F
6HR MIN TEMP:  94; 6HR MAX TEMP: 102;

$$

CAZ031-033-041-043-047-048-061-270100-
SOUTHERN CALIFORNIA

CITY           SKY/WX    TMP DP  RH WIND       PRES   REMARKS
DOWNTOWN L.A.  SUNNY     72  58  61 VRB7      29.92F
6HR MIN TEMP:  70; 6HR MAX TEMP:  78;

L.A. AIRPORT   MOSUNNY   69  57  65 W14       29.93F
6HR MIN TEMP:  69; 6HR MAX TEMP:  76;

SAN DIEGO      MOSUNNY   71  56  58 VRB7      29.95F
6HR MIN TEMP:  67; 6HR MAX TEMP:  73;

BURBANK        SUNNY     76  57  51 S12       29.91F
6HR MIN TEMP:  69; 6HR MAX TEMP:  78;

ONTARIO        SUNNY     81  52  36 SW14      29.90F
6HR MIN TEMP:  69; 6HR MAX TEMP:  84;

RIVERSIDE      SUNNY     82  53  36 W13G20    29.90S
6HR MIN TEMP:  68; 6HR MAX TEMP:  85;

PALM SPRINGS   MOSUNNY  101  43  13 N13G20    29.77F
6HR MIN TEMP:  89; 6HR MAX TEMP: 102;

EL CENTRO NAS  MOSUNNY  102  49  16 SE12      29.73F
6HR MIN TEMP:  94; 6HR MAX TEMP: 103;

IMPERIAL       SUNNY    103  57  21 SE9       29.71F HX 102
6HR MIN TEMP:  95; 6HR MAX TEMP: 104;

BLYTHE         SUNNY    100  61  27 S10       29.75F HX 101
6HR MIN TEMP:  92; 6HR MAX TEMP: 102;

NEEDLES        PTSUNNY   99  52  20 SE8G16    29.79F
6HR MIN TEMP:  96; 6HR MAX TEMP: 101;

$$

NVZ020-UTZ003-270100-
SOUTHERN NEVADA-UTAH

CITY           SKY/WX    TMP DP  RH WIND       PRES   REMARKS
LAS VEGAS      PTSUNNY   96  40  14 NW9       29.82S
6HR MIN TEMP:  89; 6HR MAX TEMP:  98;

SALT LAKE CITY MOSUNNY   83  27  13 N12G22    29.97S
6HR MIN TEMP:  81; 6HR MAX TEMP:  88;

$$

NMZ009-TXZ055-270100-
NEW MEXICO-WEST TEXAS

CITY           SKY/WX    TMP DP  RH WIND       PRES   REMARKS
ALBUQUERQUE    CLOUDY    78  44  29 CALM      30.13S
6HR MIN TEMP:  71; 6HR MAX TEMP:  81; 6HR PCP: TRACE;

EL PASO        MOSUNNY   88  49  25 CALM      30.00F
6HR MIN TEMP:  80; 6HR MAX TEMP:  91;

$$


........................KEY........................
SKY/WX - SKY CONDITION/WEATHER
TMP    - TEMPERATURE IN FAHRENHEIT
DP     - DEW POINT IN FAHRENHEIT
RH     - RELATIVE HUMIDITY IN PERCENT
WIND   - DIRECTION AND SPEED IN MILES PER HOUR (MPH)
VRB    - VARIABLE WIND DIRECTION
PRES   - MEAN SEA LEVEL PRESSURE IN INCHES OF MERCURY
         F - FALLING PRESSURE   R - RISING PRESSURE
         S - STEADY PRESSURE
VSB    - VISIBILITY IN MILES
HX     - HEAT INDEX IN FAHRENHEIT
WCI    - WIND CHILL INDEX IN FAHRENHEIT
TC     - TEMPERATURE IN CELSIUS WHICH IS ALSO KNOWN AS
         TEMPERATURE IN CENTIGRADE
AFB    - AIR FORCE BASE
         LUKE AFB IS LUKE AIR FORCE BASE
         DAVIS-MONTHAN IS DAVIS-MONTHAN AIR FORCE BASE
NAS    - NAVAL AIR STATION
         EL CENTRO NAS IS EL CENTRO NAVAL AIR STATION
N/A    - NOT AVAILABLE





USA.gov is the U.S. government's official web portal to all federal, state and local government web resources and services.